sábado 3 diciembre, 2022
Inicio / NACIONALES / TN / Clase 2 / BESTANI CERRÓ LOS ENTRENAMIENTOS
Manfrey

BESTANI CERRÓ LOS ENTRENAMIENTOS

Maximiliano Bestani, otro piloto del euipo Ale Bucci Racing, dominó el otro ensayo del TN en Neuquén, donde comenzó la quinta fecha del campeonato.

El tucumano, a bordo del Toyota Etios, fue quien marcó el tiempo más veloz quedando a tope de la tanda general previa a la clasificación que cerrará el primer día de actividad.

Tras marcar 1m37s907, superó por 0s337 a Matías Cravero y por 0s441, quedó Sebastián Pérez-

A las 16:50 horas, se disputará la tanda clasificatoria que cerrará el primer día de actividad en el autódromo de Centenario.

Tiempos completos:

POS. PILOTO AUTO VTAS. TIEMPO DIF.
1 11 MAXIMILIANO BESTANI TOYOTA ETIOS 10 1:37.907
2 150 JUAN MARTIN ELUCHANS TOYOTA ETIOS 9 1:38.462 0.555
3 14 FERNANDO GOMEZ FREDES TOYOTA ETIOS 9 1:38.502 0.595
4 6 IGNACIO PROCACITTO VW TREND 9 1:38.718 0.811
5 25 MARCO VERONESI TOYOTA ETIOS 10 1:38.786 0.879
6 19 MARCOS FERNANDEZ NISSAN MARCH 10 1:38.833 0.926
7 3 JUAN I. CANELA VW TREND 9 1:38.835 0.928
8 38 MATIAS CRAVERO FIESTA KINETIC 8 1:38.847 0.940
9 144 THOMAS POZNER TOYOTA ETIOS 11 1:38.905 0.998
10 28 SANDRO ABDALA NISSAN MARCH 12 1:38.944 1.037
11 77 LUCIANO BUCCI FIAT ARGO 12 1:38.976 1.069
12 116 ALEJANDRO TORRISI NISSAN MARCH 8 1:39.000 1.093
13 54 FACUNDO ROTONDO TOYOTA ETIOS 11 1:39.013 1.106
14 91 INAKI BEITIA TOYOTA ETIOS 11 1:39.046 1.139
15 4 MIGUEL CIAURRO VW TREND 10 1:39.058 1.151
16 15 RENZO BLOTTA TOYOTA ETIOS 10 1:39.092 1.185
17 32 GABRIEL SCORDIA FIESTA KINETIC 9 1:39.094 1.187
18 9 ALEJO BORGIANI TOYOTA ETIOS 10 1:39.150 1.243
19 18 CHRISTIAN ABDALA TOYOTA ETIOS 10 1:39.228 1.321
20 24 MARCELO GUEVARA NISSAN MARCH 12 1:39.269 1.362
21 5 PABLO ORTEGA FIAT ARGO 3 1:39.291 1.384
22 7 LUCAS YEROBI FIESTA KINETIC 9 1:39.311 1.404
23 16 SEBASTIAN PEREZ CHEVROLET ONIX 9 1:39.354 1.447
24 114 MATIAS SIGNORELLI NISSAN MARCH 9 1:39.389 1.482
25 29 NAZARENO BEGUIRISTAIN TOYOTA ETIOS 13 1:39.395 1.488
26 151 BAUTISTA BUSTOS TOYOTA ETIOS 9 1:39.646 1.739
27 22 SERGIO FERNANDEZ NISSAN MARCH 14 1:39.711 1.804
28 136 MARTIN BLASIG NISSAN MARCH 11 1:39.780 1.873
29 30 VALDERREY ALEJANDRO TOYOTA ETIOS 11 1:39.793 1.886
30 21 DIEGO LEANEZ TOYOTA ETIOS 13 1:39.810 1.903
31 89 TOMAS ARAMBURU VW TREND 11 1:39.815 1.908
32 99 JUAN DAMIANI TOYOTA ETIOS 12 1:39.881 1.974
33 63 NICOLAS BULICH FIESTA KINETIC 9 1:39.899 1.992
34 45 JOSE LUIS ARRATE TOYOTA ETIOS 13 1:39.930 2.023
35 61 ALEX CONCI FIESTA KINETIC 8 1:39.975 2.068
36 23 DAMIAN KIRSTEIN PEUGEOT 208 3 1:40.148 2.241
37 155 FRANCISCO CALO FIESTA KINETIC 9 1:40.383 2.476
38 88 PABLO VILLABERDE FIESTA KINETIC 13 1:40.684 2.777
39 8 FACUNDO BUSTOS VW TREND 10 1:40.697 2.790
40 115 BRUNO MIGLIO NISSAN MARCH 13 1:40.951 3.044
41 66 JOAQUIN TORRES FIAT ARGO 5 1:40.962 3.055

 

 

 

 

 

 

 

 

 

 

Fuente y foto: apat.org.ar

JEA

Te puede interesar

CANO SUBE A LA CLASE 2

Ramiro Cano fue otra de las voces que pasó por CÓRDOBA COMPETICIÓN y anunció importantes …